Home > Weather > Nannestad > Past weeks

Flag for Norway Weather for the Past 2 Weeks in Nannestad, Norway

Now
43 °F

Passing clouds.


Feels Like: 36 °F
Forecast: 35 / 40 °F
Wind: 13 mph from Southeast

Location: Oslo Gardermoen Airport

Current Time: Apr 29, 2016 at 10:34:09 PM

Latest Report: Apr 29, 2016 at 9:50 PM


Visibility: N/A

Pressure: 29.98 "Hg

Humidity: 61%

Dew Point: 30 °F

Location of NannestadLocation

Historic Weather in Nannestad — Graph

°F

Nannestad Temperature Yesterday

Maximum temperature yesterday: 46 °F (at 5:20 PM)
Minimum temperature yesterday: 28 °F (at 3:50 AM)
Average temperature yesterday: 38 °F

High & Low Weather Summary for the Past Weeks

 TemperatureHumidityPressure
High55 °F (Apr 21, 2:50 PM)93% (Apr 15, 8:20 PM)30.18 "Hg (Apr 15, 8:20 PM)
Low27 °F (Apr 23, 4:50 AM)19% (Apr 21, 2:50 PM)29.36 "Hg (Apr 18, 5:50 PM)
Average41 °F57%29.71 "Hg
* Reported Apr 14 9:20 PM — Apr 29 9:20 PM, Nannestad, Weather by CustomWeather, © 2016

Note: Actual official high and low records may vary slightly from our data, if they occured in-between our weather recording intervals... More about our weather records

Advertising

Nannestad Weather History for the Previous 24 Hours

Scroll right to see more
 ConditionsComfort  
Time TempWeatherWind HumidityBarometerVisibility
9:20 PM
Fri, Apr 29
43 °FPassing clouds.8 mph61%29.98 "HgN/A
8:50 PM43 °FPassing clouds.7 mph61%29.98 "HgN/A
8:20 PM43 °FPartly sunny.5 mph66%29.98 "HgN/A
7:50 PM43 °FScattered showers. Broken clouds.3 mph66%29.98 "HgN/A
7:20 PM43 °FScattered showers. Broken clouds.7 mph66%29.98 "HgN/A
6:50 PM43 °FScattered showers. Broken clouds.14 mph66%29.98 "HgN/A
6:20 PM45 °FScattered showers. Mostly cloudy.14 mph57%29.95 "HgN/A
5:50 PM45 °FScattered showers. Partly sunny.15 mph61%29.95 "HgN/A
5:20 PM45 °FScattered showers. Partly sunny.12 mph61%29.95 "HgN/A
4:50 PM43 °FSprinkles. Broken clouds.22 mph71%29.95 "HgN/A
4:20 PM45 °FScattered showers. Broken clouds.20 mph53%29.95 "HgN/A
3:50 PM46 °FScattered showers. Broken clouds.20 mph50%29.92 "HgN/A
3:20 PM46 °FBroken clouds.23 mph46%29.92 "HgN/A
2:50 PM45 °FBroken clouds.21 mph57%29.92 "HgN/A
2:20 PM45 °FScattered showers. Partly sunny.22 mph61%29.89 "HgN/A
1:50 PM45 °FScattered showers. Broken clouds.25 mph61%29.86 "HgN/A
1:20 PM45 °FScattered showers. Broken clouds.22 mph61%29.83 "HgN/A
12:50 PM43 °FBroken clouds.21 mph71%29.83 "HgN/A
12:20 PM45 °FBroken clouds.26 mph66%29.80 "HgN/A
11:50 AM45 °FBroken clouds.25 mph71%29.77 "HgN/A
11:20 AM41 °FPartly sunny.17 mph87%29.74 "HgN/A
10:50 AM39 °FBroken clouds.15 mph87%29.71 "HgN/A
10:20 AM36 °FPartly sunny.12 mph93%29.71 "HgN/A
9:50 AM36 °FPartly sunny.15 mph87%29.68 "HgN/A
9:20 AM34 °FLight rain. Partly sunny.15 mph93%29.65 "HgN/A
8:50 AM34 °FLight snow. Broken clouds.12 mph93%29.62 "Hg5 mi
8:20 AM32 °FLight snow. Broken clouds.12 mph93%29.59 "Hg4 mi
7:50 AM32 °FChilly.9 mph93%29.59 "Hg1 mi
7:20 AM32 °FSleet. Cloudy.9 mph93%29.56 "Hg1 mi
6:50 AM32 °FSnow. Dense fog.6 mph93%29.53 "Hg1 mi
6:20 AM32 °FLight snow. Dense fog.5 mph93%29.53 "Hg1 mi
5:50 AM34 °FLight rain. Passing clouds.6 mph93%29.53 "Hg4 mi
5:20 AM34 °FRain. Passing clouds.5 mph93%29.53 "Hg5 mi
4:20 AM36 °FLight rain. Partly cloudy.6 mph87%29.53 "HgN/A
3:50 AM36 °FRain. Passing clouds.5 mph87%29.56 "HgN/A
2:50 AM36 °FLight rain. Mostly cloudy.5 mph93%29.59 "HgN/A
2:20 AM36 °FLight rain. Passing clouds.6 mph87%29.59 "HgN/A
1:50 AM36 °FLight rain. Mostly cloudy.5 mph87%29.62 "HgN/A
1:20 AM34 °FLight rain. Partly cloudy.5 mph93%29.65 "HgN/A
12:50 AM34 °FLight snow. Mostly cloudy.2 mph93%29.65 "Hg5 mi
12:20 AM34 °FLight rain. Low clouds.5 mph93%29.68 "Hg6 mi
11:50 PM
Thu, Apr 28
36 °FLight rain. Passing clouds.3 mph87%29.68 "Hg5 mi
11:20 PM36 °FLight rain. Passing clouds.7 mph87%29.71 "HgN/A
10:50 PM36 °FLight rain. Passing clouds.5 mph87%29.71 "HgN/A
10:20 PM36 °FLight rain. Partly cloudy.10 mph87%29.74 "HgN/A
Weather by CustomWeather, © 2016

See weather overviewHow to use our weather pages